This is the latest recevied weather packets stored in our database for station/object NK7E-2. If no packets are shown the sender has not sent any weather packets the latest 10 day(s).
| Time | Temp. | Humidity | Pressure | Rain* | Wind** | Luminosity | Snow |
|---|---|---|---|---|---|---|---|
| 1777539916 | 17.78° C | 18% | 1020.7 hPa | 0 mm | - | - | - |
| 1777539315 | 17.78° C | 17% | 1021.1 hPa | 0 mm | - | - | - |
| 1777538715 | 18.33° C | 17% | 1021 hPa | 0 mm | - | - | - |
| 1777538115 | 19.44° C | 16% | 1021 hPa | 0 mm | - | - | - |
| 1777537515 | 18.89° C | 17% | 1021.4 hPa | 0 mm | - | - | - |
| 1777536917 | 18.89° C | 16% | 1021.3 hPa | 0 mm | - | - | - |
| 1777535717 | 18.33° C | 16% | 1021.5 hPa | 0 mm | - | - | - |
| 1777535117 | 18.89° C | 16% | 1021.8 hPa | 0 mm | - | - | - |
| 1777534517 | 18.89° C | 16% | 1021.6 hPa | 0 mm | - | - | - |
| 1777533917 | 19.44° C | 16% | 1021.5 hPa | 0 mm | - | - | - |
| 1777533317 | 20° C | 16% | 1021.7 hPa | 0 mm | - | - | - |
| 1777532717 | 19.44° C | 17% | 1021.4 hPa | 0 mm | - | - | - |
| 1777532116 | 18.89° C | 17% | 1021.3 hPa | 0 mm | - | - | - |
| 1777531516 | 18.33° C | 17% | 1020.9 hPa | 0 mm | - | - | - |
| 1777530916 | 18.89° C | 17% | 1021.4 hPa | 0 mm | - | - | - |
| 1777530316 | 18.89° C | 17% | 1021.4 hPa | 0 mm | - | - | - |
| 1777529716 | 19.44° C | 17% | 1021.8 hPa | 0 mm | - | - | - |
| 1777529116 | 19.44° C | 17% | 1021.7 hPa | 0 mm | - | - | - |
| 1777528516 | 19.44° C | 17% | 1021.9 hPa | 0 mm | - | - | - |
| 1777527916 | 20° C | 16% | 1022 hPa | 0 mm | - | - | - |
| 1777527316 | 19.44° C | 17% | 1021.9 hPa | 0 mm | - | - | - |
| 1777526716 | 20° C | 17% | 1022 hPa | 0 mm | - | - | - |
| 1777526116 | 20° C | 16% | 1021.9 hPa | 0 mm | - | - | - |
| 1777525516 | 20.56° C | 16% | 1021.7 hPa | 0 mm | - | - | - |
| 1777524916 | 20.56° C | 16% | 1022 hPa | 0 mm | - | - | - |
* Rain latest hour (hover to see other rain measurements)
** Current wind speed in m/s (hover to see current wind gust speed)